GW7188 Weather Reports


time (UTC)temp
C
wind
direction
speed
KPH
gust
KPH
rain 1hr
cm
rain 24hr
cm
rain mn
cm
humidity
%
barometer
mb
20260505071329 12 23 3.2 6.4 1.52 0.00 1.55 89 1008.9
20260505070830 12 0 4.8 9.7 1.50 0.00 1.50 90 1008.0
20260505070329 12 357 1.6 6.4 1.37 0.00 1.37 90 1007.8
20260505065829 12 13 3.2 9.7 1.35 0.00 1.37 88 1007.7
20260505065330 12 19 8.0 12.9 1.27 0.00 1.30 87 1007.4
20260505064830 12 26 6.4 14.5 1.07 0.00 1.12 84 1007.4
20260505064330 12 15 6.4 14.5 0.89 0.00 0.89 86 1006.9
20260505063831 12 16 11.3 17.7 0.81 0.00 0.81 84 1006.6
20260505063330 13 17 11.3 22.5 0.53 0.00 0.58 83 1006.3
20260505062830 13 22 8.0 14.5 0.36 0.00 0.36 80 1006.3
20260505062329 15 35 8.0 17.7 0.23 0.00 0.23 77 1006.1
20260505061830 16 18 9.7 25.7 0.03 0.00 0.05 68 1006.1
20260505061329 17 14 11.3 17.7 0.00 0.00 0.03 64 1006.0
20260505060830 18 26 11.3 17.7 0.00 0.00 0.00 60 1006.0
20260505060329 19 22 6.4 11.3 0.00 0.00 0.00 59 1005.7
20260505055830 20 24 9.7 17.7 0.00 0.00 0.00 56 1005.2
20260505055329 20 339 3.2 9.7 0.00 0.00 0.00 62 1005.0
20260505054829 20 327 3.2 9.7 0.00 0.00 0.00 70 1004.8
20260505054329 20 20 3.2 4.8 0.00 0.00 0.00 73 1004.6
20260505053829 20 35 0.0 1.6 0.00 0.00 0.00 73 1004.5
20260505053330 20 21 4.8 9.7 0.00 0.00 0.00 74 1004.6
20260505052829 19 6 1.6 8.0 0.00 0.00 0.00 74 1004.6
20260505052330 19 10 0.0 3.2 0.00 0.00 0.00 74 1004.3
20260505051829 19 187 0.0 3.2 0.00 0.00 0.00 74 1004.1
20260505051337 19 267 1.6 3.2 0.00 0.00 0.00 74 1004.0
20260505050829 19 218 0.0 4.8 0.00 0.00 0.00 74 1003.7
20260505050329 19 258 0.0 3.2 0.00 0.00 0.00 74 1003.5
20260505041330 20 119 1.6 4.8 0.00 0.00 0.00 73 1004.1
20260505040830 20 143 0.0 3.2 0.00 0.00 0.00 72 1004.2
20260505040330 20 107 0.0 3.2 0.00 0.00 0.00 73 1004.3
20260505035829 20 248 1.6 4.8 0.00 0.00 0.00 73 1004.4
20260505035330 20 118 1.6 4.8 0.00 0.00 0.00 74 1004.4
20260505034830 20 192 1.6 4.8 0.00 0.00 0.00 74 1004.4
20260505034329 20 192 0.0 1.6 0.00 0.00 0.00 74 1004.4
20260505033829 20 0 0.0 0.0 0.00 0.00 0.00 74 1004.3
20260505033329 20 0 0.0 0.0 0.00 0.00 0.00 74 1004.3
20260505032829 20 115 1.6 3.2 0.00 0.00 0.00 74 1004.3
20260505032329 20 321 1.6 4.8 0.00 0.00 0.00 74 1004.3
20260505031831 21 0 0.0 0.0 0.00 0.00 0.00 73 1004.3
20260505031331 21 149 0.0 3.2 0.00 0.00 0.00 74 1004.2
20260505030830 21 127 0.0 0.0 0.00 0.00 0.00 74 1004.1
20260505030331 21 0 0.0 0.0 0.00 0.00 0.00 73 1004.1
20260505025830 21 231 1.6 6.4 0.00 0.00 0.00 72 1004.1
20260505025331 21 101 1.6 4.8 0.00 0.00 0.00 73 1004.0
20260505024831 21 0 0.0 0.0 0.00 0.00 0.00 73 1003.9
20260505024330 21 0 0.0 0.0 0.00 0.00 0.00 72 1003.9
20260505023832 21 39 0.0 1.6 0.00 0.00 0.00 71 1003.8
20260505023330 21 0 0.0 0.0 0.00 0.00 0.00 70 1003.7
20260505022832 21 0 0.0 0.0 0.00 0.00 0.00 69 1003.6
20260505022329 22 0 0.0 0.0 0.00 0.00 0.00 68 1003.6
20260505021831 22 87 0.0 3.2 0.00 0.00 0.00 68 1003.5
20260505021330 22 93 0.0 3.2 0.00 0.00 0.00 67 1003.5
20260505020831 22 39 0.0 1.6 0.00 0.00 0.00 67 1003.4
20260505020330 22 0 0.0 0.0 0.00 0.00 0.00 66 1003.4
20260505015830 22 0 0.0 0.0 0.00 0.00 0.00 66 1003.4
20260505015330 22 0 0.0 0.0 0.00 0.00 0.00 66 1003.3
20260505014830 22 0 0.0 0.0 0.00 0.00 0.00 65 1003.2
20260505014329 22 0 0.0 0.0 0.00 0.00 0.00 64 1003.0
20260505013830 23 0 0.0 0.0 0.00 0.00 0.00 63 1002.9
20260505013329 23 0 0.0 0.0 0.00 0.00 0.00 62 1002.8
20260505012830 23 0 0.0 0.0 0.00 0.00 0.00 61 1002.8
20260505012329 23 0 0.0 0.0 0.00 0.00 0.00 60 1002.7
20260505011829 23 0 0.0 0.0 0.00 0.00 0.00 60 1002.6
20260505011329 23 208 0.0 1.6 0.00 0.00 0.00 60 1002.6
20260505010832 24 189 0.0 1.6 0.00 0.00 0.00 59 1002.5
20260505010329 24 219 0.0 3.2 0.00 0.00 0.00 59 1002.4
20260505005829 24 299 0.0 3.2 0.00 0.00 0.00 58 1002.4
20260505005332 24 217 0.0 4.8 0.00 0.00 0.00 59 1002.3
20260505004830 25 206 0.0 4.8 0.00 0.00 0.00 57 1002.3
20260505004329 25 190 0.0 3.2 0.00 0.00 0.00 57 1002.2
20260505003829 25 177 0.0 0.0 0.00 0.00 0.00 56 1002.2
20260505003330 25 232 1.6 4.8 0.00 0.00 0.00 55 1002.2
20260505002830 25 220 1.6 4.8 0.00 0.00 0.00 55 1002.2
20260505002330 25 185 1.6 4.8 0.00 0.00 0.00 54 1002.1
20260505001834 25 220 3.2 8.0 0.00 0.00 0.00 54 1002.1
20260505001329 25 202 3.2 6.4 0.00 0.00 0.00 54 1002.1
20260505000830 26 187 1.6 6.4 0.00 0.00 0.00 54 1002.1
20260505000331 26 0 0.0 0.0 0.00 0.00 0.00 53 1002.1
20260504235830 26 0 0.0 0.0 0.00 0.00 0.00 53 1002.1
20260504235329 26 214 4.8 6.4 0.00 0.00 0.00 53 1002.1
20260504234830 26 268 0.0 3.2 0.00 0.00 0.00 52 1002.1
20260504234331 26 216 4.8 9.7 0.00 0.00 0.00 52 1002.1
20260504233832 26 160 0.0 3.2 0.00 0.00 0.00 53 1002.1
20260504233329 26 210 3.2 8.0 0.00 0.00 0.00 52 1002.1
20260504232829 27 225 3.2 6.4 0.00 0.00 0.00 51 1002.2
20260504232330 27 197 1.6 6.4 0.00 0.00 0.00 51 1002.2
20260504231830 27 195 3.2 4.8 0.00 0.00 0.00 51 1002.2
20260504231329 27 0 0.0 0.0 0.00 0.00 0.00 51 1002.3
20260504230830 27 182 1.6 3.2 0.00 0.00 0.00 50 1002.3
20260504230329 27 246 1.6 3.2 0.00 0.00 0.00 50 1002.4
20260504225829 27 193 3.2 6.4 0.00 0.00 0.00 49 1002.3
20260504225329 27 0 0.0 0.0 0.00 0.00 0.00 49 1002.3
20260504224829 27 260 0.0 1.6 0.00 0.00 0.00 48 1002.3
20260504224329 27 192 3.2 6.4 0.00 0.00 0.00 49 1002.3
20260504223830 27 130 0.0 3.2 0.00 0.00 0.00 49 1002.2
20260504223330 28 206 4.8 4.8 0.00 0.00 0.00 48 1002.2
20260504222829 28 249 3.2 4.8 0.00 0.00 0.00 47 1002.2
20260504222330 28 313 0.0 0.0 0.00 0.00 0.00 47 1002.2
20260504221829 28 280 3.2 8.0 0.00 0.00 0.00 46 1002.3
20260504221330 27 188 1.6 4.8 0.00 0.00 0.00 47 1002.3
20260504220829 27 198 1.6 4.8 0.00 0.00 0.00 47 1002.3
20260504220330 27 229 3.2 6.4 0.00 0.00 0.00 47 1002.4
20260504215829 28 204 4.8 4.8 0.00 0.00 0.00 48 1002.5
20260504215329 28 192 1.6 4.8 0.00 0.00 0.00 47 1002.5
20260504214830 28 273 1.6 3.2 0.00 0.00 0.00 46 1002.5
20260504214329 28 249 0.0 4.8 0.00 0.00 0.00 46 1002.5
20260504213829 28 238 4.8 9.7 0.00 0.00 0.00 46 1002.6
20260504213330 27 227 0.0 3.2 0.00 0.00 0.00 48 1002.6
20260504212829 27 252 3.2 6.4 0.00 0.00 0.00 48 1002.7
20260504212330 27 279 3.2 6.4 0.00 0.00 0.00 47 1002.7
20260504211829 27 263 3.2 8.0 0.00 0.00 0.00 47 1002.7
20260504211329 28 242 3.2 6.4 0.00 0.00 0.00 46 1002.7
20260504210830 27 283 3.2 6.4 0.00 0.00 0.00 46 1002.7
20260504210331 27 234 3.2 8.0 0.00 0.00 0.00 47 1002.7
20260504205830 27 262 3.2 4.8 0.00 0.00 0.00 46 1002.8
20260504205329 27 228 4.8 9.7 0.00 0.00 0.00 46 1002.9
20260504204830 27 251 4.8 11.3 0.00 0.00 0.00 45 1003.0
20260504204329 27 201 3.2 8.0 0.00 0.00 0.00 47 1003.0
20260504203829 27 254 6.4 9.7 0.00 0.00 0.00 47 1003.1
20260504203330 27 247 4.8 9.7 0.00 0.00 0.00 46 1003.2
20260504202829 27 251 3.2 9.7 0.00 0.00 0.00 46 1003.2
20260504202329 27 284 4.8 9.7 0.00 0.00 0.00 45 1003.2
20260504201829 27 234 8.0 12.9 0.00 0.00 0.00 45 1003.2
20260504201329 27 211 4.8 9.7 0.00 0.00 0.00 46 1003.1
20260504200829 27 226 4.8 9.7 0.00 0.00 0.00 46 1003.2
20260504200331 27 186 6.4 11.3 0.00 0.00 0.00 45 1003.2
20260504195830 27 267 6.4 9.7 0.00 0.00 0.00 44 1003.2
20260504195329 27 205 6.4 9.7 0.00 0.00 0.00 45 1003.2
20260504194829 27 226 6.4 12.9 0.00 0.00 0.00 44 1003.2
20260504194329 27 328 3.2 6.4 0.00 0.00 0.00 45 1003.3
20260504193829 27 271 6.4 16.1 0.00 0.00 0.00 44 1003.3
20260504193330 27 223 8.0 14.5 0.00 0.00 0.00 46 1003.4
20260504192830 27 274 1.6 8.0 0.00 0.00 0.00 47 1003.4
20260504192329 27 203 9.7 14.5 0.00 0.00 0.00 48 1003.4
20260504191830 27 227 4.8 8.0 0.00 0.00 0.00 47 1003.5
20260504191330 26 250 4.8 6.4 0.00 0.00 0.00 48 1003.5
20260504190830 26 230 6.4 12.9 0.00 0.00 0.00 47 1003.5
20260504190330 26 220 6.4 12.9 0.00 0.00 0.00 47 1003.5
20260504185834 26 251 6.4 9.7 0.00 0.00 0.00 47 1003.7
20260504185332 26 190 3.2 6.4 0.00 0.00 0.00 48 1003.7
20260504184832 27 255 6.4 9.7 0.00 0.00 0.00 47 1003.6
20260504184330 26 260 3.2 8.0 0.00 0.00 0.00 47 1003.7
20260504183830 26 222 4.8 9.7 0.00 0.00 0.00 47 1003.7
20260504183330 26 237 4.8 6.4 0.00 0.00 0.00 46 1003.8
20260504182830 26 248 4.8 12.9 0.00 0.00 0.00 48 1003.9
20260504182330 26 218 4.8 6.4 0.00 0.00 0.00 48 1003.8
20260504181829 26 256 6.4 9.7 0.00 0.00 0.00 47 1003.8
20260504181329 26 236 4.8 11.3 0.00 0.00 0.00 47 1003.8
20260504180830 25 254 4.8 6.4 0.00 0.00 0.00 48 1003.8
20260504180329 25 264 8.0 11.3 0.00 0.00 0.00 47 1003.9
20260504175830 26 253 6.4 9.7 0.00 0.00 0.00 48 1003.9
20260504175330 26 229 6.4 12.9 0.00 0.00 0.00 47 1004.0
20260504174830 26 249 6.4 9.7 0.00 0.00 0.00 47 1004.0
20260504174331 25 201 6.4 8.0 0.00 0.00 0.00 47 1004.0
20260504173830 25 268 3.2 9.7 0.00 0.00 0.00 49 1004.0
20260504173331 25 177 6.4 9.7 0.00 0.00 0.00 48 1004.0
20260504172830 25 219 6.4 11.3 0.00 0.00 0.00 48 1004.0
20260504172331 25 258 9.7 14.5 0.00 0.00 0.00 47 1004.1
20260504171830 25 238 3.2 6.4 0.00 0.00 0.00 48 1004.1
20260504171331 25 236 4.8 11.3 0.00 0.00 0.00 48 1004.1
20260504170830 25 267 9.7 14.5 0.00 0.00 0.00 48 1004.2
20260504170329 25 229 9.7 12.9 0.00 0.00 0.00 48 1004.2
20260504160329 23 236 6.4 12.9 0.00 0.00 0.00 52 1004.3
20260504150830 21 270 6.4 11.3 0.00 0.00 0.00 54 1004.4
20260504150330 21 262 8.0 14.5 0.00 0.00 0.00 54 1004.4
20260504141330 19 220 4.8 9.7 0.00 0.00 0.00 58 1004.5
20260504140832 19 206 4.8 12.9 0.00 0.00 0.00 57 1004.6
20260504130330 18 242 4.8 8.0 0.00 0.00 0.00 56 1004.4
20260504110329 17 208 3.2 6.4 0.00 0.00 0.00 55 1004.6
20260504100329 18 285 3.2 6.4 0.00 0.00 0.00 53 1004.8
20260504081830 19 147 3.2 6.4 0.00 0.00 0.00 51 1005.9
20260504081331 19 218 3.2 9.7 0.00 0.00 0.00 50 1005.9
20260504080830 19 161 3.2 8.0 0.00 0.00 0.00 50 1006.0
20260504080329 19 221 6.4 9.7 0.00 0.00 0.00 50 1006.0